User: anonymous   Login
Location: Nitra
(0.0000°N, 18.0833°E)
Time: 22:33:53
(UTC+02:00)
Language:

XW-2B - Orbit

View from above orbital plane
View from above orbital plane
View from above satellite
View from above satellite

Ground track
Ground track

The orbit data is extracted from the following two-line orbital elements,

1 40911U 15049N   24114.50096492  .00054290  00000-0  11837-2 0  9993
2 40911  97.4746 132.1913 0009918 124.2019 236.0171 15.44018011476114
Epoch (UTC): 23 April 2024 12:01:23
Eccentricity: 0.0009918
inclination: 97.4746°
perigee height: 427 km
apogee height: 441 km
right ascension of ascending node: 132.1913°
argument of perigee: 124.2019°
revolutions per day: 15.44018011
mean anomaly at epoch: 236.0171°
orbit number at epoch: 47611

The dashed part of the orbit path shows where the satellite is in the earth's shadow,  

DLR